Torna al catalogo

CSTP-2.2

AttivoScienzaSSO
NORAD 61775·PAYLOAD·🇷🇺 Russia

Lanciato Nov 4, 2024 da Vostochny Cosmodrome

Loading…

Prossimi Passaggi (prossime 24 ore)

TLE

AggiornatoSource: Space-Track

Epoca: Sep 14, 2026, 14:55 UTC

1 61775U 24199AS  26257.62163599  .00014125  00000-0  28141-3 0  9996
2 61775  97.2821 130.3783 0012213 319.0313  41.0018 15.46925392147980

Traccia CSTP-2.2 in tempo reale con AllMySat

Download on the App Store